Location: Camps Bay
(33.9517°S, 18.3844°E)
Time: 13:13:20
(UTC+00:00)

ATLAS 5 CENTAUR R/B - Pass Details

Date: 18 January 2020
Orbit: 550 x 1108 km, 63.4° (Epoch: 12 February)

Event Time Altitude Azimuth Distance (km) Brightness Sun altitude
Exits shadow 02:45:25 - 347° (NNW) 3,272 4.8 -12.9°
Reaches altitude 10° 02:46:20 10° 348° (NNW) 2,965 4.6 -12.7°
Maximum altitude 02:53:19 57° 64° (ENE) 1,275 3.3 -11.6°
Drops below altitude 10° 03:00:00 10° 140° (SE) 2,840 6.3 -10.4°
Sets 03:02:34 0° 144° (SE) 3,732 7.1 -10.0°
